Location: Acequia del Cap
(41.7000°N, 0.6167°E)
Time: 00:37:56
(UTC+00:00)

USA 215 - Pass Details

Date: 07 August 2020
Orbit: 1102 x 1106 km, 123.0° (Epoch: 08 August)

Event Time Altitude Azimuth Distance (km) Brightness Sun altitude
Rises 03:24:28 0° 46° (NE) 3,927 8.0 -15.7°
Reaches altitude 10° 03:27:05 10° 40° (NE) 2,967 6.8 -15.4°
Maximum altitude 03:33:07 42° 333° (NNW) 1,538 4.1 -14.5°
Enters shadow 03:38:48 12° 266° (W) 2,837 4.9 -13.6°
